Overview Statistics Trail Chart Weather Telemetry Raw packets
 

This is the latest recevied weather packets stored in our database for station/object EA7OC-10. If no packets are shown the sender has not sent any weather packets the latest 10 day(s).

<< 15 16 17 18 19 20 21 >>
Time Temp. Humidity Pressure Rain* Wind** Luminosity Snow
1788238382 22.78° C 23% 1017 hPa - - - -
1788237482 22.78° C 23% 1017 hPa - - - -
1788236582 22.78° C 23% 1017.3 hPa - - - -
1788235682 23.33° C 23% 1017.3 hPa - - - -
1788234783 23.33° C 22% 1017.3 hPa - - - -
1788233881 24.44° C 22% 1017.4 hPa - - - -
1788232981 24.44° C 22% 1017.4 hPa - - - -
1788232081 25° C 22% 1017.6 hPa - - - -
1788231181 25.56° C 22% 1017.6 hPa - - - -
1788230276 26.11° C 22% 1017.6 hPa - - - -
1788229376 26.67° C 22% 1017.7 hPa - - - -
1788228476 27.22° C 22% 1017.7 hPa - - - -
1788227576 27.22° C 22% 1017.6 hPa - - - -
1788226676 27.22° C 22% 1017.5 hPa - - - -
1788225776 26.67° C 22% 1017.7 hPa - - - -
1788224873 26.67° C 22% 1017.7 hPa - - - -
1788223982 26.67° C 22% 1017.7 hPa - - - -
1788223073 26.67° C 22% 1017.6 hPa - - - -
1788222173 26.67° C 21% 1017.5 hPa - - - -
1788221273 26.67° C 22% 1017.3 hPa - - - -
1788220372 26.67° C 22% 1017.2 hPa - - - -
1788219472 27.22° C 21% 1017.2 hPa - - - -
1788218572 27.78° C 22% 1017.1 hPa - - - -
1788217672 27.22° C 21% 1017 hPa - - - -
1788216772 27.22° C 21% 1017 hPa - - - -

* Rain since midnight (hover to see other rain measurements)
** Current wind speed in m/s (hover to see current wind gust speed)